WetterOnline ( https://www.wetteronline.de )

Wetter aktuell Olbernhau

Aktuelles Wetter: Marienberg (640m)

6-stündlich | Neueste Meldungen
Ortszeit Temperatur Wetter
Di, 22.09. 20:00 17.8° C wolkenlos
Di, 22.09. 14:00 22.4° C wolkenlos
Di, 22.09. 8:00 11.6° C wolkenlos
Di, 22.09. 2:00 9.5° C wolkenlos
Mo, 21.09. 20:00 14.8° C wolkenlos
Mo, 21.09. 14:00 20.7° C wolkenlos
Mo, 21.09. 8:00 12.2° C wolkenlos
Mo, 21.09. 2:00 8.1° C leicht bewölkt
Ortszeit Temperatur Wetter
Di, 22.09. 23:30 15.7° C wolkig
Di, 22.09. 23:20 15.7° C wolkig
Di, 22.09. 23:10 15.6° C wolkig
Di, 22.09. 23:00 15.2° C leicht bewölkt
Di, 22.09. 22:50 15.2° C leicht bewölkt
Di, 22.09. 22:40 15.0° C leicht bewölkt
Di, 22.09. 22:30 15.4° C leicht bewölkt
Di, 22.09. 22:00 14.9° C fast wolkenlos
Di, 22.09. 21:30 15.7° C wolkenlos
Di, 22.09. 21:00 16.7° C fast wolkenlos
Di, 22.09. 20:30 17.2° C wolkenlos
Ortszeit Relative Feuchte Sichtweite
Di, 22.09. 20:00 64% 40 km
Di, 22.09. 14:00 42% 30 km
Di, 22.09. 8:00 85% 30 km
Di, 22.09. 2:00 90% 26 km
Mo, 21.09. 20:00 70% 40 km
Mo, 21.09. 14:00 50% 45 km
Mo, 21.09. 8:00 65% 55 km
Mo, 21.09. 2:00 84% 55 km
Ortszeit Relative Feuchte Sichtweite
Di, 22.09. 23:30 75% 30 km
Di, 22.09. 23:20 75% -
Di, 22.09. 23:10 75% -
Di, 22.09. 23:00 76% 35 km
Di, 22.09. 22:50 76% -
Di, 22.09. 22:40 76% -
Di, 22.09. 22:30 76% 30 km
Di, 22.09. 22:00 76% 30 km
Di, 22.09. 21:30 72% 35 km
Di, 22.09. 21:00 68% 30 km
Di, 22.09. 20:30 66% 35 km
Ortszeit Niederschlagsmenge Niederschlagsart
Di, 22.09. 20:00 0.0 l/m2 in 12 Std. -
Di, 22.09. 14:00 0.0 l/m2 in 6 Std. -
Di, 22.09. 8:00 0.0 l/m2 in 12 Std. -
Di, 22.09. 2:00 0.0 l/m2 in 6 Std. -
Mo, 21.09. 20:00 0.0 l/m2 in 12 Std. -
Mo, 21.09. 14:00 0.0 l/m2 in 6 Std. -
Mo, 21.09. 8:00 0.0 l/m2 in 12 Std. -
Mo, 21.09. 2:00 0.0 l/m2 in 6 Std. -
Ortszeit Niederschlagsmenge Niederschlagsart
Di, 22.09. 23:30 0.0 l/m2 in 1 Std. -
Di, 22.09. 23:20 keine Meldung -
Di, 22.09. 23:10 keine Meldung -
Di, 22.09. 23:00 0.0 l/m2 in 1 Std. -
Di, 22.09. 22:50 keine Meldung -
Di, 22.09. 22:40 keine Meldung -
Di, 22.09. 22:30 0.0 l/m2 in 1 Std. -
Di, 22.09. 22:00 0.0 l/m2 in 1 Std. -
Di, 22.09. 21:30 0.0 l/m2 in 1 Std. -
Di, 22.09. 21:00 0.0 l/m2 in 1 Std. -
Di, 22.09. 20:30 0.0 l/m2 in 1 Std. -
Ortszeit Stärke Spitze Richtung
km/h Bft. km/h Grad Sektor
Di, 22.09. 20:00 7 2 22 140° SO
Di, 22.09. 14:00 4 1 22 260° W
Di, 22.09. 8:00 4 1 14 250° W
Di, 22.09. 2:00 7 2 14 230° SW
Mo, 21.09. 20:00 4 1 25 90° O
Mo, 21.09. 14:00 11 2 29 120° SO
Mo, 21.09. 8:00 7 2 22 80° O
Mo, 21.09. 2:00 4 1 7 140° SO
Ortszeit Stärke Spitze Richtung
km/h Bft. km/h Grad Sektor
Di, 22.09. 23:30 7 2 11 130° SO
Di, 22.09. 23:20 7 2 - 130° SO
Di, 22.09. 23:10 7 2 - 130° SO
Di, 22.09. 23:00 4 1 11 90° O
Di, 22.09. 22:50 4 1 - 90° O
Di, 22.09. 22:40 4 1 - 80° O
Di, 22.09. 22:30 6 1 7 90° O
Di, 22.09. 22:00 2 1 9 170° S
Di, 22.09. 21:30 4 1 11 120° SO
Di, 22.09. 21:00 6 1 15 120° SO
Di, 22.09. 20:30 6 1 15 140° SO
Ortszeit Untergrenze Bedeckung Gattung
total tief tief mittel hoch
Di, 22.09. 20:00 - 0/8 0/8 - - -
Di, 22.09. 14:00 - 0/8 0/8 - - -
Di, 22.09. 8:00 - 0/8 0/8 - - -
Di, 22.09. 2:00 - 0/8 0/8 - - -
Mo, 21.09. 20:00 - 0/8 0/8 - - -
Mo, 21.09. 14:00 - 0/8 0/8 - - -
Mo, 21.09. 8:00 - 0/8 0/8 - - -
Mo, 21.09. 2:00 8100 m 3/8 0/8 - - -
Ortszeit Bedeckungsgrad in Achtel und Wolkenuntergrenze
Di, 22.09. 23:30 7(7500m) 8(8400m)
Di, 22.09. 23:20 7(7500m) 8(8400m)
Di, 22.09. 23:10 7(7800m) 7(8400m)
Di, 22.09. 23:00 3(7500m) 3(8400m)
Di, 22.09. 22:50 3(7500m) 3(8400m)
Di, 22.09. 22:40 3(7800m)
Di, 22.09. 22:30 5(7800m) 6(8400m)
Di, 22.09. 22:00 1(2700m)
Di, 22.09. 21:30 keine Wolken
Di, 22.09. 21:00 1(9000m)
Di, 22.09. 20:30 2(9000m)
Ortszeit Luftdruck NN (hPa) Tendenz (hPa in 3 Std.)
Di, 22.09. 20:00 1009 - 0,8
Di, 22.09. 14:00 1010 - 1,1
Di, 22.09. 8:00 1014 0,0
Di, 22.09. 2:00 1016 - 0,7
Mo, 21.09. 20:00 1016 - 0,4
Mo, 21.09. 14:00 1015 - 0,5
Mo, 21.09. 8:00 1018 - 0,3
Mo, 21.09. 2:00 1020 + 0,3
Ortszeit Luftdruck NN (hPa) Tendenz (hPa in 3 Std.)
Di, 22.09. 23:30 1009 - 0,7
Di, 22.09. 23:20 1009 keine Meldung
Di, 22.09. 23:10 1009 keine Meldung
Di, 22.09. 23:00 1009 - 0,5
Di, 22.09. 22:50 1009 keine Meldung
Di, 22.09. 22:40 1010 keine Meldung
Di, 22.09. 22:30 1010 - 0,3
Di, 22.09. 22:00 1010 - 0,1
Di, 22.09. 21:30 1010 - 0,1
Di, 22.09. 21:00 1010 - 0,2
Di, 22.09. 20:30 1010 - 0,4
Ortszeit Schneehöhe (cm)
Di, 22.09. 20:00 0
Di, 22.09. 14:00 0
Di, 22.09. 8:00 0
Di, 22.09. 2:00 0
Mo, 21.09. 20:00 0
Mo, 21.09. 14:00 0
Mo, 21.09. 8:00 0
Mo, 21.09. 2:00 0
Ortszeit Schneehöhe (cm)
Di, 22.09. 23:30 0
Di, 22.09. 23:20 0
Di, 22.09. 23:10 0
Di, 22.09. 23:00 0
Di, 22.09. 22:50 0
Di, 22.09. 22:40 0
Di, 22.09. 22:30 0
Di, 22.09. 22:00 0
Di, 22.09. 21:30 0
Di, 22.09. 21:00 0
Di, 22.09. 20:30 0
Link zu dieser Seite / Seite empfehlen

Das Wetter in ...